Helicity
70 83 88 96 87 79 68 62 40 34 37 71 130 137 79 188 376 59 58 76 39 45 143 156 176 183 230 227 227 238 224 160 107 98 63 38 83 94 106 125 130 114 149 131 73
99 100 71 71 52 31 55 42 45 27 18 36 87 132 140 62 149 72 83 26 16 36 133 148 180 211 263 232 242 251 201 139 131 123 75 83 80 87 126 162 150 142 145 105 67
69 56 50 50 34 41 52 36 43 60 37 26 24 84 134 67 47 26 29 29 24 40 101 115 130 188 229 243 266 232 178 178 145 124 114 76 101 103 107 122 111 134 139 121 122
65 53 27 39 39 41 28 37 44 53 71 74 53 66 145 132 142 79 52 4 9 60 88 122 159 190 201 215 249 212 178 164 146 109 129 95 99 110 84 90 87 106 141 120 116
41 37 22 43 19 23 27 28 33 35 37 31 71 47 58 132 47 25 128 184 49 80 65 127 179 202 145 183 241 182 146 165 137 131 110 92 70 69 69 55 73 91 119 140 141
23 29 50 27 22 23 11 20 25 21 25 42 62 61 64 206 24 66 43 157 89 75 60 142 146 212 156 152 184 83 123 107 102 76 76 33 44 50 51 47 53 76 100 126 139
35 44 31 31 19 5 2 -1 15 12 8 16 37 32 69 137 114 95 83 116 80 66 74 137 127 198 139 151 138 114 103 102 68 70 62 2 21 43 49 64 65 76 88 113 113
49 42 31 35 18 11 -3 -8 7 24 -3 2 24 26 53 -35 90 52 107 89 82 60 77 88 132 180 156 142 177 170 155 121 89 69 78 64 32 -9 88 45 62 75 71 81 97
42 45 21 30 1 20 3 -7 26 1 8 -1 33 19 115 20 102 53 89 110 98 95 105 121 116 146 194 175 201 163 114 133 174 69 94 101 17 12 103 63 76 87 86 66 83
27 16 30 9 -3 14 8 -10 6 54 91 83 36 45 115 41 1 69 73 55 100 96 81 79 130 152 174 200 170 174 195 144 125 90 100 87 62 63 71 14 27 55 61 60 57
31 52 28 21 -5 3 14 23 57 39 29 -5 20 110 97 35 76 60 114 77 156 192 125 94 176 108 112 186 140 119 131 126 123 112 91 63 31 44 51 38 42 53 65 74 78
2 19 31 16 1 -2 53 79 70 27 -28 12 83 18 95 196 36 102 117 125 129 97 222 146 86 87 119 143 145 144 153 146 159 122 69 69 35 52 50 46 50 56 64 57 55
-8 -12 25 41 16 18 47 82 115 10 19 85 -65 138 231 174 72 19 110 141 136 63 93 202 164 90 104 136 162 176 139 134 132 113 46 16 -3 47 67 78 129 150 99 116 147
-2 -9 26 81 42 27 13 36 7 15 148 117 -91 93 96 99 129 45 67 143 122 67 43 212 129 169 121 65 110 151 142 131 117 112 107 85 80 103 122 133 213 233 275 275 222
13 32 29 51 59 3 5 16 35 61 192 184 57 100 102 143 116 167 139 131 57 141 76 98 -14 -22 94 159 136 119 77 104 135 109 100 108 59 115 145 215 211 234 281 289 226
16 10 53 41 72 55 36 37 15 190 209 112 28 69 109 95 131 125 113 143 120 188 211 95 88 60 94 112 122 62 142 140 116 99 102 101 79 127 120 177 191 218 240 216 173
25 26 39 48 106 -13 21 73 227 162 177 67 108 116 56 136 130 126 103 149 94 97 128 202 171 99 62 98 84 93 88 134 157 155 99 102 87 92 98 87 87 184 185 135 73
20 77 73 9 -43 41 131 222 223 172 133 32 114 47 116 112 209 158 135 159 135 105 140 96 141 125 108 82 41 73 84 84 118 96 93 78 92 83 80 97 69 125 42 -17 -26
72 117 102 111 125 130 60 119 153 138 75 93 131 225 176 121 122 116 129 108 101 84 52 79 104 101 91 89 100 78 85 78 78 91 114 84 83 46 55 66 77 96 18 24 17
133 126 126 110 93 100 37 101 123 137 132 89 98 98 109 101 88 93 132 113 77 101 101 76 82 85 62 86 128 69 74 84 92 80 111 99 83 63 49 57 93 45 -9 -10 -21
88 81 105 86 41 54 28 62 121 84 84 63 49 47 66 41 59 127 94 85 86 100 53 50 55 87 56 61 47 82 78 86 79 77 121 161 95 41 20 49 39 3 -9 -21 -43
60 76 60 29 6 49 26 32 82 103 91 78 56 54 43 60 66 80 55 39 92 51 76 59 37 56 64 47 53 54 45 56 56 48 54 50 64 51 45 33 -26 4 -9 -14 -23
6 41 42 32 15 63 82 90 57 70 50 47 36 31 49 50 41 69 71 68 67 82 46 47 62 69 64 38 58 43 52 61 60 53 30 51 48 52 33 -4 23 -13 -13 8 -1
19 57 35 25 17 10 44 52 46 71 52 48 37 43 47 38 54 68 75 73 62 83 75 63 41 35 25 32 37 46 58 74 60 45 46 38 40 -7 41 39 37 8 10 12 5
13 36 18 28 3 28 -26 28 36 42 51 58 49 42 23 27 45 51 77 82 74 84 85 56 24 30 33 33 43 44 34 53 61 71 37 48 34 79 80 43 29 21 19 18 9
39 27 7 22 16 -5 30 18 10 7 45 55 51 62 37 19 19 1 63 65 39 77 87 77 27 21 36 32 23 38 25 19 22 31 46 46 85 77 42 22 -8 1 12 1 -1
37 28 33 13 -14 -12 -9 22 42 51 68 85 68 84 91 59 46 37 56 63 36 56 92 90 19 25 33 35 30 31 25 47 66 49 36 51 73 74 60 29 13 23 12 11 -3
Wind_Speed
69 68 69 71 71 70 69 70 71 68 70 70 69 74 69 66 69 64 77 62 60 53 35 43 51 50 46 51 48 47 68 79 76 67 60 48 49 45 43 49 45 40 42 44 34
77 74 72 72 70 69 69 69 72 71 70 70 71 73 73 70 73 78 60 61 58 61 59 53 59 49 57 58 56 61 76 76 65 59 59 51 49 46 48 49 47 43 43 40 24
75 75 74 72 68 70 70 67 67 70 69 68 69 70 71 63 68 72 67 73 59 56 54 52 45 52 62 59 62 66 79 65 61 56 50 51 52 49 52 59 51 47 43 38 28
75 72 72 71 69 65 61 65 68 68 68 68 68 68 66 64 77 43 42 55 62 53 53 48 53 61 67 68 63 70 72 62 59 56 53 57 53 57 57 51 40 38 42 38 33
73 72 71 70 60 61 62 60 58 55 58 62 65 63 61 73 76 36 41 44 47 53 59 53 57 60 71 68 58 70 62 68 58 57 58 57 64 67 68 56 54 53 50 47 41
72 71 69 58 58 61 57 53 52 53 58 59 59 57 63 86 58 61 48 45 42 53 55 52 56 50 57 59 65 63 69 55 61 68 63 69 70 65 61 54 59 59 63 60 56
70 64 59 52 58 59 57 46 46 45 52 54 54 52 65 83 44 49 52 47 42 52 52 50 39 48 42 57 51 53 60 74 71 58 62 55 78 81 74 68 75 73 69 69 67
64 57 46 47 60 60 53 50 17 4 35 51 49 50 68 60 58 55 54 45 36 50 43 50 44 39 42 36 46 54 57 66 57 63 64 55 77 46 46 55 66 69 70 70 77
56 52 38 39 62 57 54 52 44 13 9 44 42 49 60 49 58 53 48 43 36 41 41 42 43 46 43 48 50 60 71 71 59 48 50 62 68 59 53 56 63 66 70 70 73
55 46 31 5 33 52 52 47 49 38 28 27 40 48 57 62 52 39 43 45 45 40 44 46 44 51 53 63 75 64 65 59 66 55 56 60 72 68 70 66 69 70 73 76 75
53 41 23 10 12 21 40 45 44 45 37 39 43 54 50 45 43 50 40 39 48 37 51 48 51 65 60 56 48 52 56 59 54 52 56 64 71 73 70 73 77 77 77 75 74
62 44 18 7 13 22 29 38 36 37 36 43 52 55 50 44 57 59 43 47 55 61 40 39 60 51 44 43 49 49 52 53 48 47 55 64 78 78 70 68 69 71 71 69 67
68 55 24 14 22 24 24 30 33 8 32 39 44 56 48 50 53 71 52 42 54 54 40 47 44 35 42 47 47 49 51 51 51 47 49 63 69 59 45 46 44 49 51 48 49
75 67 56 39 32 29 26 31 28 32 40 47 47 43 39 42 51 55 51 40 46 48 33 38 37 28 32 45 44 53 42 44 44 49 61 49 68 55 44 32 39 36 34 35 37
78 70 62 47 34 26 20 31 38 31 44 47 47 31 31 43 53 50 44 39 47 40 37 40 36 26 32 34 32 44 39 41 41 45 52 51 54 45 40 37 33 34 36 37 38
76 69 56 53 43 29 35 33 30 40 43 44 41 38 40 38 41 41 41 33 30 28 21 30 32 30 34 25 23 20 27 34 41 46 56 51 51 47 38 35 29 34 37 38 40
53 62 57 47 43 27 24 26 41 46 43 46 48 44 39 44 46 45 42 34 37 45 34 32 31 29 22 14 19 27 34 48 50 51 53 43 45 45 34 28 23 34 40 43 45
34 43 37 35 24 20 21 38 50 38 40 41 44 45 38 43 36 39 38 32 26 30 37 37 38 33 31 29 26 32 35 43 54 49 47 40 47 39 29 28 23 39 43 46 50
29 30 29 28 30 24 23 35 40 35 38 38 36 34 44 34 41 39 37 34 35 37 37 36 32 29 28 29 32 36 40 34 36 38 45 40 41 39 25 20 31 47 51 57 59
36 33 33 22 26 23 29 41 38 41 43 35 39 39 43 40 37 37 35 38 34 33 29 32 29 30 28 30 30 36 23 34 35 44 50 43 44 38 27 27 40 53 58 62 63
33 36 33 22 31 22 37 43 37 30 43 31 41 39 38 42 36 39 36 35 33 31 28 27 30 35 31 38 35 31 33 30 28 34 38 42 38 29 23 28 50 61 62 64 64
29 39 25 26 25 25 33 33 32 31 34 32 32 28 34 38 37 34 35 32 35 27 32 35 30 32 38 35 36 38 38 34 33 36 34 35 38 29 27 34 57 62 63 63 65
25 28 30 28 39 35 32 34 29 30 29 30 31 35 36 35 31 31 32 31 31 31 30 29 30 29 35 40 39 41 41 37 30 30 34 32 33 28 31 53 59 60 64 61 65
26 29 27 24 36 37 32 33 34 31 27 26 28 27 26 31 29 31 32 34 37 32 23 26 28 31 33 30 28 35 37 32 33 35 34 40 39 47 54 56 60 62 59 59 62
28 28 28 32 18 22 33 32 35 34 31 27 28 29 21 25 27 28 30 28 31 32 32 31 31 34 35 35 33 34 34 33 39 40 36 37 44 55 57 57 59 59 56 60 62
29 25 22 25 27 28 25 25 30 30 34 32 21 25 26 19 29 7 22 34 37 34 38 37 33 34 37 38 45 50 51 46 53 52 62 62 62 56 55 54 56 54 58 58 60
37 27 23 21 25 29 26 26 26 26 24 21 18 20 24 29 29 22 26 20 20 25 34 37 38 35 36 37 41 49 56 51 41 38 44 43 50 52 55 54 54 54 51 57 60
Wind_Direction
338 337 333 330 327 322 316 311 305 297 292 290 290 279 282 286 280 263 254 257 253 256 262 242 241 243 248 245 248 249 245 245 245 247 253 261 262 270 277 272 276 281 283 286 301
337 335 333 330 327 323 319 313 306 299 294 288 286 281 275 280 277 259 260 257 253 249 249 240 233 237 240 242 243 242 244 246 250 251 254 257 261 267 270 271 272 277 289 295 297
339 337 334 331 328 324 320 317 311 301 293 288 285 282 270 275 271 260 258 250 249 245 245 242 233 236 238 240 241 243 245 248 251 254 258 256 261 268 268 264 271 275 286 294 290
342 341 338 335 330 329 328 320 312 305 297 290 282 279 269 261 251 270 268 253 240 239 238 235 229 233 236 237 240 244 246 249 253 254 257 257 263 266 267 269 278 282 290 294 289
345 342 339 338 339 333 327 328 326 317 302 292 281 277 263 246 242 271 272 268 231 230 229 229 225 232 235 239 241 244 250 249 255 257 259 262 261 265 265 272 275 278 282 283 287
346 345 342 344 339 329 332 340 335 317 296 285 279 275 252 236 248 251 269 266 233 224 225 228 231 235 238 243 241 248 247 255 256 256 261 260 263 266 269 276 274 274 273 276 277
349 349 348 348 336 329 327 347 347 342 307 288 278 271 245 229 250 255 258 258 236 222 221 229 225 231 241 242 246 248 248 249 252 258 259 266 261 261 267 270 269 271 273 273 272
356 354 355 352 334 309 324 338 34 91 340 289 277 264 235 233 242 243 243 252 231 224 224 227 228 237 243 248 242 242 249 247 256 254 258 263 256 266 276 273 271 272 274 275 271
1 359 2 359 297 296 313 329 267 8 53 303 275 243 225 229 226 235 229 240 218 223 224 222 226 235 240 233 238 240 244 245 253 258 261 253 261 267 275 276 276 277 276 277 276
3 360 5 352 269 311 319 340 339 6 21 333 256 222 222 214 220 228 230 231 218 215 219 224 234 233 235 231 235 238 243 249 249 258 260 260 261 267 270 276 276 278 278 277 277
1 1 358 21 54 7 355 349 350 332 320 246 223 209 206 219 221 222 230 224 214 214 219 222 228 228 228 234 244 242 246 249 255 259 263 263 265 268 275 275 274 275 276 278 280
8 5 3 52 79 36 25 360 4 335 253 226 215 210 214 221 210 212 220 218 212 211 221 217 231 234 227 234 240 242 244 250 258 264 266 268 267 269 276 278 278 278 279 282 285
18 18 22 82 65 65 60 26 16 61 218 200 195 197 204 205 202 203 213 224 210 209 215 224 234 222 224 231 236 244 246 252 257 268 274 275 270 275 286 289 294 293 289 292 294
25 31 43 55 48 69 77 68 115 194 178 181 186 201 208 201 197 201 212 223 216 212 211 222 232 225 219 231 237 242 253 257 261 266 263 279 264 278 285 287 300 310 313 308 311
34 43 54 63 81 138 172 139 168 186 164 181 186 212 203 207 194 205 215 228 220 219 226 222 221 216 224 239 239 249 253 257 262 267 270 271 270 276 281 280 294 309 312 311 314
38 48 61 78 102 139 146 167 181 164 160 178 189 194 196 197 201 199 209 235 230 224 233 227 232 243 233 243 247 238 249 262 267 268 265 269 266 273 279 280 288 304 313 316 318
46 53 68 86 103 137 167 174 153 147 168 174 184 188 182 189 197 200 214 218 223 215 216 228 233 231 221 248 251 261 252 255 260 261 263 273 269 273 284 287 296 309 315 319 321
55 66 84 107 128 144 153 147 139 155 156 175 181 177 188 191 199 210 211 220 236 228 218 230 229 244 250 261 262 260 265 260 254 258 264 274 270 274 286 287 307 317 321 324 326
65 85 104 116 120 141 146 140 155 166 166 172 171 181 183 193 197 208 220 226 233 237 239 242 250 263 265 265 262 262 262 271 268 275 272 273 276 284 294 289 304 314 323 324 323
65 85 94 125 131 144 139 140 154 165 169 173 178 191 196 205 213 216 222 228 234 240 250 248 250 260 256 261 272 264 265 267 271 265 265 275 273 276 275 291 307 316 321 319 319
75 89 96 112 130 152 135 146 151 168 174 185 178 188 201 204 213 220 232 237 242 242 252 252 257 254 258 256 256 262 266 277 276 276 271 271 280 292 283 303 314 315 315 317 321
82 80 102 117 152 175 159 166 165 179 172 191 192 199 204 208 222 233 238 251 242 250 251 252 261 260 255 265 265 263 262 266 272 270 279 287 287 300 297 308 312 309 315 321 323
83 91 89 114 103 142 175 184 198 201 206 210 214 213 212 218 239 244 247 246 242 248 251 251 262 259 261 264 266 260 257 263 274 279 277 285 293 303 310 304 306 312 316 322 325
78 77 95 129 115 140 183 198 208 215 224 232 223 228 235 232 248 250 246 244 240 249 263 263 264 261 261 270 273 261 261 263 264 271 281 278 286 287 294 301 305 312 321 326 328
59 75 94 83 27 247 137 224 229 229 237 249 242 241 267 265 259 256 249 251 251 246 251 258 264 264 264 265 266 265 267 264 263 270 281 290 289 277 284 297 305 316 325 324 328
30 60 102 106 109 346 312 292 258 264 250 261 291 278 287 337 277 28 266 250 248 252 249 253 263 262 267 263 255 254 252 259 251 259 252 260 256 269 278 303 307 319 325 329 334
3 24 50 89 87 89 33 320 288 278 292 292 300 305 304 295 290 287 269 279 281 263 250 251 252 264 268 264 266 263 246 248 269 276 271 280 274 288 287 292 301 324 338 336 337